Location: Branche des Alpilles
(43.6087°N, 4.6976°E)
Time: 04:02:22
(UTC+00:00)

Cosmos 1666 Rocket - Pass Details

Date: 30 November 2020
Orbit: 604 x 633 km, 82.5° (Epoch: 24 January)

Event Time Altitude Azimuth Distance (km) Brightness Sun altitude
Rises 17:21:10 0° 347° (NNW) 2,908 7.0 -13.3°
Reaches altitude 10° 17:23:26 10° 343° (NNW) 2,002 6.2 -13.7°
Maximum altitude 17:27:46 56° 266° (W) 747 4.3 -14.4°
Drops below altitude 10° 17:32:07 10° 188° (S) 2,001 6.5 -15.2°
Sets 17:34:22 0° 184° (S) 2,907 7.3 -15.6°
